Temperature
-3 -3 -3 -2 -2 -1 -1 -0 1 2 3 3 4 5 7 8 9 9 10 11 12 12 13 13 14 14 15 15 15 15 15 15 15 16 16 16 16 16 16 16 16 16 16
-5 -5 -4 -4 -4 -4 -3 -3 -2 -1 1 2 3 4 5 6 8 9 9 10 11 12 12 13 13 14 14 14 14 15 15 15 15 15 16 16 16 16 16 16 16 16 16
-5 -6 -6 -6 -6 -5 -5 -5 -4 -3 -2 -0 2 3 3 5 6 8 9 9 10 11 12 12 12 13 13 14 14 14 15 15 15 15 15 16 16 16 16 16 16 16 16
-6 -6 -7 -7 -7 -6 -6 -6 -6 -5 -5 -4 -1 1 2 4 5 6 7 8 9 10 11 11 12 12 12 13 14 14 15 15 15 14 15 15 16 16 16 16 16 16 16
-6 -7 -8 -8 -8 -7 -7 -7 -7 -7 -6 -6 -5 -2 0 2 3 4 6 7 8 9 9 10 11 11 12 12 13 13 14 14 14 14 14 15 15 16 16 16 16 16 16
-6 -7 -8 -8 -8 -8 -8 -7 -7 -7 -7 -6 -6 -5 -2 1 2 3 4 5 6 7 8 9 10 11 11 11 12 13 13 14 14 14 14 14 14 15 15 16 16 16 16
-7 -8 -8 -9 -9 -9 -9 -9 -8 -8 -7 -7 -7 -6 -3 -1 0 1 2 3 4 5 7 8 9 10 10 11 11 12 13 13 14 14 14 14 14 14 15 15 15 15 15
-8 -9 -9 -9 -9 -9 -9 -9 -9 -9 -8 -8 -8 -7 -6 -4 -1 1 1 2 2 3 5 7 7 8 9 10 10 11 12 12 13 13 14 14 14 14 15 15 15 15 15
-9 -9 -10 -10 -10 -10 -10 -10 -10 -10 -10 -9 -8 -8 -6 -6 -6 -3 -1 0 1 2 3 5 7 8 8 9 10 10 11 12 12 13 13 14 14 14 14 15 15 15 15
-9 -10 -10 -11 -11 -11 -11 -11 -11 -11 -11 -10 -9 -8 -8 -7 -6 -6 -4 -2 -1 1 2 4 6 7 8 9 10 10 11 11 12 12 13 14 14 14 14 14 15 15 15
-10 -11 -11 -11 -11 -11 -11 -11 -11 -11 -11 -11 -10 -9 -8 -7 -7 -6 -6 -5 -3 -0 1 3 5 6 8 8 9 10 10 11 11 12 12 13 14 14 14 14 14 15 15
-11 -11 -12 -12 -12 -12 -12 -12 -12 -11 -11 -10 -10 -10 -9 -8 -7 -7 -6 -6 -6 -3 -0 2 3 5 6 8 8 9 10 11 11 11 12 12 13 14 14 14 14 14 15
-12 -12 -13 -13 -13 -13 -12 -12 -12 -12 -11 -10 -10 -10 -9 -9 -8 -7 -7 -7 -6 -5 -3 0 2 4 5 6 7 9 10 10 10 11 11 12 12 13 13 14 14 14 15
-13 -13 -14 -14 -14 -13 -13 -12 -12 -12 -11 -10 -10 -10 -9 -8 -8 -7 -7 -7 -6 -6 -5 -3 0 2 4 5 6 8 9 10 10 10 11 11 12 12 13 13 14 14 14
-14 -14 -14 -14 -14 -13 -13 -13 -13 -12 -11 -10 -10 -9 -9 -8 -8 -7 -7 -7 -7 -6 -6 -5 -3 -1 2 4 5 7 8 9 9 10 10 11 11 12 12 13 13 14 14
-14 -14 -14 -14 -14 -14 -13 -13 -13 -12 -11 -10 -10 -9 -9 -8 -8 -7 -7 -7 -7 -6 -6 -5 -4 -3 0 3 5 6 7 8 9 9 10 10 11 11 12 12 13 13 13
-14 -14 -14 -14 -14 -14 -14 -13 -12 -12 -11 -10 -9 -9 -9 -8 -8 -7 -7 -7 -6 -6 -6 -5 -5 -3 -1 1 4 4 6 7 8 9 9 10 10 11 11 12 12 12 13
-14 -14 -14 -14 -14 -14 -13 -13 -12 -11 -10 -10 -9 -9 -8 -8 -8 -7 -7 -7 -6 -6 -5 -5 -4 -3 -1 0 2 4 4 5 7 8 8 9 10 11 11 12 12 12 12
-14 -14 -14 -14 -14 -13 -13 -12 -11 -10 -10 -10 -9 -9 -9 -9 -8 -8 -8 -7 -6 -5 -5 -4 -4 -3 -1 -0 1 2 3 3 5 7 8 9 10 10 11 11 12 12 12
-14 -14 -14 -13 -13 -13 -12 -11 -10 -10 -10 -10 -9 -9 -9 -9 -9 -9 -8 -8 -7 -6 -4 -4 -3 -2 -1 -0 0 1 1 2 4 6 7 8 9 10 11 11 12 12 12
-13 -13 -13 -13 -13 -12 -11 -10 -10 -10 -10 -10 -10 -9 -9 -9 -10 -9 -9 -8 -8 -7 -5 -4 -3 -2 -1 -1 0 0 1 2 3 5 7 8 9 10 10 11 11 12 12
-13 -13 -13 -13 -12 -11 -10 -10 -11 -11 -10 -10 -10 -10 -10 -10 -10 -10 -9 -9 -8 -8 -7 -5 -4 -3 -2 -1 -1 0 1 1 3 5 6 8 9 9 10 11 11 12 12
-13 -13 -13 -13 -12 -11 -10 -11 -11 -11 -11 -11 -11 -10 -10 -10 -10 -10 -10 -9 -9 -8 -8 -8 -6 -5 -4 -3 -2 -0 1 2 3 4 6 7 8 8 9 10 11 11 11
-13 -14 -14 -13 -12 -12 -11 -12 -12 -12 -11 -11 -11 -11 -11 -11 -10 -11 -10 -10 -9 -9 -8 -8 -7 -6 -5 -4 -2 -1 1 2 3 4 5 6 7 7 8 8 9 10 10
-14 -14 -14 -13 -13 -12 -12 -12 -13 -12 -12 -12 -12 -12 -12 -12 -11 -11 -10 -11 -10 -9 -9 -8 -7 -7 -6 -4 -3 -1 -0 1 3 4 5 6 6 7 7 7 8 8 9
-14 -14 -14 -13 -13 -13 -13 -12 -13 -13 -13 -13 -13 -13 -12 -12 -12 -12 -12 -12 -11 -10 -9 -8 -8 -7 -6 -5 -4 -2 -1 1 2 3 4 5 6 6 5 6 7 7 8
Wind_Speed
17 18 18 18 18 20 19 18 19 20 19 19 19 19 18 20 20 18 18 24 25 24 22 24 25 26 25 24 26 28 28 27 26 25 24 23 22 22 22 23 24 23 23
19 18 17 17 17 20 20 18 17 15 15 15 15 18 19 18 18 20 20 20 22 23 21 21 24 25 24 24 24 26 27 28 28 27 25 25 24 23 22 23 24 25 24
21 19 15 14 18 21 20 18 15 14 12 12 15 15 15 16 18 20 20 18 17 20 21 19 22 25 24 24 24 24 24 26 29 30 28 26 25 24 23 23 24 25 25
23 20 13 13 18 19 17 13 9 11 11 12 13 13 12 14 17 18 17 17 16 15 17 20 18 23 24 24 24 25 23 24 28 31 31 29 26 26 25 24 24 25 25
23 21 13 14 17 15 13 12 12 12 13 13 13 13 13 14 15 14 14 14 14 13 13 16 18 17 22 23 24 24 24 23 25 30 31 31 29 27 26 25 25 25 25
23 21 16 17 17 11 9 10 12 12 12 13 15 15 15 14 12 9 11 10 11 11 11 12 12 12 17 22 23 23 24 24 23 26 30 32 31 29 27 26 26 25 26
23 19 17 16 16 9 10 11 11 13 12 12 13 14 12 10 9 7 8 10 9 13 13 11 10 10 9 15 22 22 23 24 24 24 27 32 33 31 29 28 27 26 26
21 19 18 14 14 9 10 10 10 8 11 11 11 12 8 7 7 10 8 8 9 11 12 13 13 12 10 8 13 21 23 23 24 25 25 30 33 34 32 29 28 27 26
19 18 20 16 14 9 9 10 8 9 11 11 9 7 6 6 13 7 7 7 10 11 11 11 12 13 14 11 11 16 22 23 24 25 25 27 32 35 34 31 29 28 27
18 18 20 17 15 12 8 9 9 9 10 11 10 7 8 10 8 8 7 6 9 12 12 12 13 12 13 12 13 16 18 22 25 25 25 27 31 34 34 33 31 29 28
17 18 19 16 16 12 9 8 9 9 8 10 10 10 10 9 10 9 14 13 12 7 9 12 11 10 12 11 11 15 17 20 23 24 24 25 29 33 34 34 33 30 29
11 18 19 16 17 13 10 9 8 11 10 11 11 10 10 8 9 9 11 15 15 12 12 10 10 9 7 9 13 19 19 18 20 21 22 22 24 30 33 34 33 31 30
9 10 17 15 14 15 16 14 9 11 11 12 12 11 11 10 11 10 11 13 15 13 8 7 7 7 9 8 10 21 19 15 17 18 19 20 21 25 29 33 33 33 32
10 15 18 17 17 18 18 14 10 11 11 12 14 13 11 10 10 10 10 11 14 12 8 8 9 9 6 7 12 19 16 18 13 14 16 19 20 22 25 29 32 33 33
16 18 19 16 16 17 15 12 10 12 12 12 12 13 11 10 9 9 9 9 11 14 13 8 5 6 9 10 15 15 15 21 19 13 13 14 17 19 22 25 27 30 32
17 17 15 14 14 14 14 11 11 12 13 13 11 13 13 9 8 9 9 9 10 12 14 9 9 12 13 14 17 14 15 24 21 12 12 12 13 13 15 19 23 25 27
16 14 14 14 15 15 12 12 13 14 14 14 13 13 13 11 9 8 9 9 10 11 15 14 11 12 14 13 11 10 12 13 14 12 11 13 13 12 11 12 16 21 24
15 16 16 15 16 16 14 14 15 14 14 14 13 12 11 9 9 8 8 9 10 11 13 16 12 11 13 11 9 9 10 12 11 13 10 13 14 14 13 12 12 15 19
14 16 15 16 17 18 18 16 14 13 12 11 10 8 8 10 10 9 9 8 9 10 10 12 11 9 9 8 8 8 10 11 12 11 9 11 13 14 15 14 14 14 17
13 15 16 18 19 20 17 12 9 6 5 6 7 8 9 9 12 12 9 10 11 11 9 8 9 8 7 6 5 5 8 8 10 6 4 5 9 13 15 16 17 16 17
14 14 17 18 20 18 13 10 9 10 9 9 10 10 11 14 20 16 12 11 12 11 10 7 5 5 4 3 3 3 6 6 8 5 3 3 4 5 8 12 16 18 19
14 14 15 17 19 18 23 27 19 13 11 11 11 11 11 11 17 22 22 21 18 14 12 10 8 6 5 4 4 3 2 4 6 4 4 3 4 5 5 5 13 19 21
13 13 14 16 17 21 26 26 24 14 12 12 12 11 13 15 13 8 16 20 19 21 19 12 10 9 7 7 7 5 3 2 4 3 2 3 2 3 3 5 16 20 23
11 10 11 14 15 21 26 24 22 13 11 12 12 12 11 13 15 14 12 11 11 13 16 11 10 10 10 9 6 6 5 5 5 3 1 3 3 3 3 4 15 21 26
8 9 10 12 14 18 26 23 19 9 10 11 13 14 14 11 23 23 16 14 13 12 17 21 19 17 18 18 13 5 4 4 3 1 2 2 3 4 5 4 11 26 33
9 10 11 10 12 13 23 23 17 9 10 10 11 13 19 20 24 24 15 14 15 13 14 15 15 16 14 14 16 9 5 3 2 2 0 2 4 4 5 6 9 14 25
Wind_Direction
360 354 349 343 343 345 340 338 336 335 334 332 331 330 327 322 316 317 316 314 317 315 293 254 236 226 219 214 213 209 204 201 199 197 196 193 191 190 189 189 187 185 186
357 353 344 341 344 342 335 331 327 332 328 328 327 327 321 318 317 318 314 313 314 317 312 269 241 232 226 219 218 216 210 207 203 198 196 194 192 191 190 190 189 187 186
355 350 342 345 346 341 336 332 328 330 327 327 325 323 319 319 317 312 309 307 309 313 312 298 258 242 235 229 223 220 215 214 212 202 196 194 194 193 191 190 189 188 186
353 346 339 347 346 342 340 335 336 332 328 325 324 320 318 316 309 305 302 301 303 303 307 307 289 255 243 237 230 225 219 218 218 210 199 195 194 193 192 191 189 189 187
350 344 335 345 347 344 340 340 340 334 330 328 323 320 318 308 300 301 304 303 301 298 301 306 306 279 252 242 235 230 225 222 221 216 205 198 194 194 193 192 190 190 189
347 344 346 345 347 344 340 339 336 333 331 328 326 319 309 298 292 297 309 317 318 324 315 310 311 300 268 248 240 233 228 225 224 221 211 202 197 195 194 193 191 191 190
346 344 350 345 347 341 335 335 334 335 335 333 327 322 305 287 289 326 326 319 338 350 340 335 327 313 292 265 247 237 232 229 226 223 217 207 199 195 194 193 192 191 190
343 347 345 341 342 337 332 333 333 336 331 334 328 325 319 313 338 319 311 319 346 340 335 340 340 341 321 291 262 243 236 234 230 225 221 213 204 198 195 193 193 191 190
336 339 337 334 335 332 329 327 328 334 327 324 323 318 318 321 324 302 316 331 336 328 331 329 333 334 331 328 295 258 237 232 234 230 223 218 211 204 196 193 192 192 190
328 334 332 331 330 326 322 323 335 319 318 318 316 301 305 308 305 309 312 316 323 326 322 325 322 319 321 321 316 289 252 232 232 233 228 221 216 211 202 195 192 191 191
325 329 327 330 327 321 316 312 314 313 311 306 306 306 304 302 290 296 305 314 318 312 317 314 307 304 309 309 316 310 279 244 234 232 232 227 219 214 207 199 194 191 190
324 326 325 328 325 320 315 312 309 309 305 300 300 301 301 299 301 300 299 307 310 312 312 304 297 292 296 310 316 327 309 260 238 230 227 228 224 218 211 203 196 192 190
327 319 323 322 321 319 316 315 310 307 302 300 300 298 294 288 288 289 294 300 302 307 304 296 298 308 304 305 319 336 326 286 244 233 224 219 218 219 216 209 198 193 191
322 319 321 317 316 317 316 312 307 305 304 303 298 295 291 284 281 282 287 296 301 301 299 291 302 285 296 330 328 337 334 320 271 235 223 215 211 211 214 211 202 194 191
324 324 319 314 313 312 311 308 305 304 301 298 295 295 292 284 282 282 281 281 286 294 298 296 295 320 341 325 323 326 327 324 306 249 217 208 206 206 207 207 204 198 192
322 319 319 315 311 310 307 304 304 301 300 297 296 297 295 288 286 281 277 275 270 273 279 282 293 305 307 303 305 314 317 321 313 262 202 183 184 190 198 203 202 201 196
319 319 319 317 314 310 306 304 301 300 299 299 299 300 299 296 291 285 281 277 273 268 273 280 281 284 284 285 293 301 309 312 306 275 202 177 174 176 180 190 197 197 195
319 321 320 317 315 314 308 302 298 298 294 295 300 304 309 319 315 306 297 289 284 273 268 275 278 276 275 276 284 293 303 300 294 281 220 185 181 182 184 187 190 193 192
321 322 323 321 320 317 310 301 292 287 285 290 301 319 340 353 348 336 327 328 314 297 270 261 266 267 268 265 269 275 279 282 287 274 229 193 190 189 188 190 190 191 191
325 326 327 327 326 323 318 314 310 312 322 337 352 354 353 6 0 348 348 348 338 331 311 273 257 255 259 258 245 241 256 271 279 270 222 189 194 195 193 190 189 189 191
333 329 331 333 334 336 355 26 31 37 32 20 11 3 358 12 12 5 7 5 356 355 353 338 303 269 258 263 253 234 235 263 273 255 212 189 183 184 190 196 191 188 187
333 334 335 337 341 347 24 48 47 34 27 18 9 1 359 3 15 10 9 13 10 8 9 4 356 347 346 351 341 315 245 235 250 231 190 180 174 182 185 186 188 184 181
337 339 339 343 345 350 25 40 39 31 21 14 6 1 6 0 16 6 3 10 8 10 14 12 2 353 344 347 336 315 307 247 253 273 186 163 146 154 154 171 176 175 171
339 339 339 347 349 356 20 36 32 21 15 10 4 358 359 353 8 20 3 1 4 3 6 9 5 355 349 351 332 295 293 295 273 279 238 139 117 103 100 138 159 156 149
335 339 347 350 352 351 9 30 35 8 11 5 4 1 5 1 9 18 12 3 5 2 2 6 10 7 3 359 3 336 293 247 233 240 3 113 110 80 58 82 132 136 133
343 349 353 353 350 347 4 22 40 24 12 7 4 0 3 13 11 17 16 6 9 2 355 356 360 0 357 354 2 359 331 291 252 181 286 110 113 104 70 43 93 117 122
Height
1525 1521 1517 1512 1508 1503 1498 1493 1489 1485 1483 1479 1476 1474 1472 1471 1471 1471 1471 1472 1473 1474 1475 1477 1480 1483 1486 1490 1495 1499 1502 1507 1511 1515 1517 1520 1523 1527 1530 1534 1538 1542 1546
1524 1519 1514 1509 1505 1500 1496 1491 1486 1481 1477 1474 1471 1468 1466 1464 1463 1463 1464 1464 1466 1467 1469 1471 1474 1477 1480 1484 1487 1492 1496 1500 1505 1509 1512 1516 1519 1522 1526 1530 1534 1538 1543
1522 1517 1512 1507 1502 1497 1492 1487 1483 1478 1473 1469 1465 1462 1459 1457 1457 1457 1457 1458 1458 1460 1462 1464 1467 1470 1474 1477 1481 1484 1489 1493 1498 1503 1507 1510 1514 1518 1521 1525 1530 1534 1539
1519 1514 1510 1505 1500 1494 1489 1484 1480 1474 1469 1464 1459 1456 1453 1451 1451 1451 1450 1451 1451 1452 1454 1456 1459 1463 1467 1470 1474 1478 1483 1487 1491 1495 1500 1504 1509 1513 1517 1521 1526 1530 1534
1516 1511 1507 1502 1496 1491 1486 1481 1476 1472 1467 1461 1456 1451 1448 1446 1445 1445 1444 1444 1444 1445 1446 1449 1452 1455 1460 1463 1467 1471 1476 1481 1485 1488 1492 1497 1503 1507 1512 1517 1521 1526 1530
1513 1508 1503 1498 1492 1487 1482 1478 1473 1469 1465 1459 1453 1447 1443 1441 1440 1439 1439 1438 1438 1438 1439 1442 1445 1448 1452 1457 1460 1464 1469 1473 1478 1482 1485 1490 1495 1501 1507 1512 1517 1521 1525
1510 1505 1500 1494 1489 1485 1480 1475 1470 1464 1460 1456 1450 1444 1438 1437 1434 1433 1433 1433 1432 1432 1433 1435 1439 1441 1445 1450 1454 1458 1462 1466 1470 1475 1479 1484 1489 1495 1501 1507 1512 1516 1521
1507 1502 1496 1491 1486 1481 1477 1472 1468 1462 1457 1455 1452 1445 1439 1432 1429 1427 1427 1427 1426 1427 1427 1429 1432 1435 1439 1443 1446 1451 1455 1459 1463 1468 1473 1478 1483 1488 1494 1501 1507 1512 1516
1504 1499 1493 1488 1483 1478 1474 1469 1465 1461 1455 1453 1453 1451 1445 1438 1428 1420 1421 1420 1420 1421 1421 1423 1426 1430 1433 1435 1439 1443 1448 1452 1456 1461 1466 1471 1477 1483 1488 1494 1500 1506 1511
1501 1495 1490 1484 1479 1475 1470 1466 1462 1458 1454 1450 1448 1447 1445 1441 1436 1424 1415 1414 1415 1415 1415 1417 1419 1424 1427 1430 1433 1436 1440 1445 1450 1454 1459 1464 1470 1475 1482 1487 1494 1500 1506
1497 1491 1486 1480 1475 1471 1466 1462 1458 1454 1451 1448 1445 1442 1440 1437 1434 1429 1419 1410 1409 1409 1410 1410 1412 1417 1421 1424 1427 1430 1434 1438 1443 1448 1453 1458 1463 1469 1475 1481 1487 1493 1500
1492 1487 1482 1476 1471 1466 1461 1457 1453 1449 1446 1443 1441 1438 1436 1433 1430 1427 1422 1414 1407 1404 1404 1405 1407 1411 1415 1418 1421 1424 1427 1431 1436 1441 1446 1452 1457 1463 1469 1475 1481 1487 1494
1486 1481 1477 1472 1466 1461 1456 1452 1447 1444 1441 1439 1436 1433 1430 1428 1426 1424 1421 1415 1408 1402 1399 1399 1402 1405 1409 1412 1415 1418 1421 1425 1429 1435 1440 1445 1451 1457 1463 1470 1475 1481 1488
1481 1476 1472 1467 1462 1457 1451 1447 1442 1439 1436 1434 1431 1428 1425 1423 1422 1420 1418 1414 1407 1401 1398 1396 1396 1399 1403 1406 1409 1411 1414 1418 1423 1428 1433 1438 1444 1450 1457 1464 1470 1475 1481
1478 1472 1467 1462 1457 1452 1447 1442 1437 1434 1431 1429 1426 1423 1421 1419 1417 1415 1413 1412 1410 1402 1395 1393 1394 1395 1396 1400 1403 1404 1407 1411 1416 1421 1427 1432 1437 1444 1450 1457 1464 1470 1476
1475 1469 1463 1457 1452 1447 1442 1437 1432 1429 1427 1424 1422 1419 1417 1414 1412 1410 1408 1406 1404 1401 1395 1389 1391 1390 1391 1393 1396 1398 1401 1405 1410 1415 1421 1426 1431 1437 1443 1450 1457 1464 1471
1473 1466 1460 1453 1447 1441 1436 1431 1427 1425 1422 1420 1418 1416 1413 1411 1408 1405 1403 1401 1398 1396 1391 1387 1388 1387 1387 1388 1391 1393 1396 1400 1405 1411 1416 1420 1425 1431 1437 1443 1450 1457 1464
1471 1464 1457 1450 1443 1436 1430 1426 1422 1420 1419 1417 1415 1413 1410 1407 1404 1401 1398 1395 1392 1390 1387 1384 1384 1384 1383 1383 1384 1388 1391 1395 1400 1406 1410 1415 1420 1425 1431 1437 1444 1451 1457
1470 1463 1455 1447 1438 1431 1424 1419 1417 1416 1416 1415 1414 1412 1409 1405 1402 1398 1394 1391 1387 1383 1381 1380 1379 1380 1380 1381 1382 1384 1388 1393 1395 1400 1405 1410 1414 1419 1425 1431 1438 1445 1452
1469 1462 1454 1446 1437 1428 1420 1415 1414 1415 1416 1415 1414 1411 1409 1405 1401 1396 1392 1387 1383 1378 1375 1374 1375 1376 1377 1378 1380 1381 1385 1388 1391 1395 1400 1405 1410 1415 1420 1426 1432 1439 1446
1470 1463 1455 1447 1438 1428 1423 1419 1418 1418 1418 1417 1415 1412 1409 1406 1402 1396 1391 1385 1380 1376 1372 1370 1371 1372 1374 1375 1377 1378 1380 1383 1386 1391 1396 1401 1405 1409 1413 1420 1426 1433 1440
1471 1464 1457 1450 1442 1434 1431 1427 1425 1423 1422 1419 1416 1413 1409 1406 1401 1395 1389 1384 1379 1375 1371 1368 1368 1369 1370 1372 1373 1374 1376 1381 1385 1388 1392 1395 1400 1404 1409 1415 1421 1428 1435
1472 1466 1460 1454 1447 1441 1438 1434 1431 1428 1425 1421 1418 1415 1411 1407 1402 1395 1389 1383 1378 1374 1372 1369 1367 1367 1368 1369 1369 1370 1372 1377 1380 1384 1388 1391 1395 1399 1404 1410 1416 1423 1429
1473 1467 1462 1458 1452 1447 1443 1439 1434 1431 1428 1424 1421 1417 1413 1408 1404 1396 1390 1384 1378 1374 1371 1368 1366 1365 1366 1366 1367 1367 1369 1373 1377 1380 1383 1386 1391 1396 1401 1407 1412 1418 1425
1475 1469 1465 1461 1456 1451 1448 1443 1437 1434 1430 1426 1422 1418 1415 1409 1405 1398 1391 1385 1380 1375 1371 1368 1366 1365 1364 1364 1364 1365 1366 1371 1374 1376 1379 1383 1388 1394 1400 1405 1411 1417 1423
1477 1472 1468 1464 1460 1455 1451 1447 1441 1436 1432 1428 1424 1420 1416 1412 1406 1400 1393 1387 1382 1377 1372 1368 1366 1364 1362 1361 1361 1361 1363 1366 1370 1373 1376 1381 1385 1391 1398 1404 1409 1415 1422